Weather History for Ingleside, TX

Change the Weather History Date:

Friday, November 2, 2012

  Actual Average Record
Temperature  
Mean Temperature 75 °F -  
Max Temperature 86 °F - - ()
Min Temperature 64 °F - - ()
Cooling Degree Days 10    
Growing Degree Days 25 (Base 50)    
Moisture  
Dew Point 68 °F    
Average Humidity 77    
Maximum Humidity 95    
Minimum Humidity 49    
Precipitation  
Precipitation 0.00 in - - ()
Sea Level Pressure  
Sea Level Pressure 29.99 in    
Wind  
Wind Speed 6 mph (SSE)    
Max Wind Speed 17 mph    
Max Gust Speed 24 mph    
Visibility 8 miles    
Events Fog    
T = Trace of Precipitation, MM = Missing Value Source: NWS Daily Summary

Daily Weather History Graph

Daily Weather History Graph

Search for Another Location

Airport:

Trip Planner

Search our weather history database for the weather conditions in past years. The results will help you decide how hot, cold, wet, or windy it might be!

Date:

Astronomy

Nov. 02, 2012 Rise Set
Actual Time 7:41 AM CDT 6:43 PM CDT
Civil Twilight 7:16 AM CDT 7:07 PM CDT
Nautical Twilight 6:48 AM CDT 7:35 PM CDT
Astronomical Twilight 6:21 AM CDT 8:02 PM CDT
Moon 9:41 PM CDT (11/2) 10:52 AM CDT (11/2)
Length of Visible Light 11h 50m
Length of Day
11h 02m
Waning Gibbous, 87% of the Moon is Illuminated
Nov 2
Waning Gibbous
Nov 6
Last Quarter
Nov 13
New
Nov 20
First Quarter
Nov 28
Full

Hourly Weather History & Observations

Time (CDT) Temp. Heat Index Dew Point Humidity Pressure Visibility Wind Dir Wind Speed Gust Speed Precip Events Conditions
12:15 AM 71.8 °F - 69.1 °F 91% 30.00 in 10.0 mi SSE 5.8 mph - N/A   Clear
12:35 AM 71.8 °F - 69.1 °F 91% 30.00 in 10.0 mi SSE 5.8 mph - N/A   Clear
12:55 AM 71.4 °F - 68.9 °F 92% 30.00 in 10.0 mi SSE 4.6 mph - N/A   Clear
1:15 AM 71.1 °F - 68.9 °F 93% 30.00 in 10.0 mi SSE 4.6 mph - N/A   Clear
1:35 AM 70.7 °F - 68.4 °F 92% 29.99 in 10.0 mi South 5.8 mph - N/A   Clear
1:55 AM 70.3 °F - 68.4 °F 93% 30.00 in 10.0 mi SSE 3.5 mph - N/A   Clear
2:15 AM 70.9 °F - 68.9 °F 93% 30.00 in 10.0 mi Calm Calm - N/A   Clear
2:35 AM 70.9 °F - 69.1 °F 94% 29.99 in 7.0 mi Calm Calm - N/A   Clear
2:55 AM 71.1 °F - 69.3 °F 94% 29.99 in 5.0 mi Calm Calm - N/A   Clear
3:15 AM 71.1 °F - 69.3 °F 94% 29.99 in 10.0 mi SSE 3.5 mph - N/A   Clear
3:35 AM 70.7 °F - 69.1 °F 95% 29.99 in 10.0 mi Calm Calm - N/A   Clear
3:55 AM 70.5 °F - 68.9 °F 95% 29.99 in 10.0 mi Calm Calm - N/A   Clear
4:15 AM 70.5 °F - 68.9 °F 95% 29.99 in 7.0 mi SSE 3.5 mph - N/A   Clear
4:35 AM 70.3 °F - 68.9 °F 95% 29.99 in 5.0 mi SSE 3.5 mph - N/A   Clear
4:55 AM 70.0 °F - 68.5 °F 95% 29.99 in 0.5 mi SSE 3.5 mph - N/A Fog Fog
5:15 AM 69.3 °F - 67.6 °F 95% 29.99 in 0.5 mi South 3.5 mph - N/A Fog Fog
5:35 AM 69.1 °F - 67.5 °F 95% 29.99 in 0.5 mi South 3.5 mph - N/A Fog Fog
5:55 AM 68.0 °F - 66.4 °F 95% 29.99 in 0.2 mi Calm Calm - N/A Fog Fog
6:15 AM 67.8 °F - 66.2 °F 95% 29.99 in 3.0 mi Calm Calm - N/A   Clear
6:35 AM 69.3 °F - 67.6 °F 95% 29.99 in 0.2 mi Calm Calm - N/A Fog Fog
6:55 AM 68.2 °F - 66.7 °F 95% 30.00 in 4.0 mi Calm Calm - N/A   Clear
7:15 AM 68.0 °F - 66.6 °F 95% 30.00 in 0.5 mi Calm Calm - N/A Fog Fog
7:35 AM 66.4 °F - 64.9 °F 95% 30.01 in 0.2 mi Calm Calm - N/A Fog Fog
7:55 AM 64.9 °F - 63.5 °F 95% 30.01 in 0.2 mi Calm Calm - N/A Fog Fog
8:55 AM 69.1 °F - 67.6 °F 95% 30.02 in 7.0 mi Calm Calm - N/A   Clear
9:15 AM 72.9 °F - 71.2 °F 95% 30.03 in 10.0 mi Calm Calm - N/A   Clear
9:35 AM 75.9 °F - 73.4 °F 92% 30.03 in 10.0 mi Calm Calm - N/A   Clear
9:55 AM 78.1 °F - 73.0 °F 84% 30.03 in 10.0 mi SSE 4.6 mph - N/A   Clear
10:15 AM 80.6 °F 84.6 °F 71.8 °F 74% 30.03 in 10.0 mi SSE 9.2 mph - N/A   Clear
10:35 AM 82.2 °F 86.2 °F 70.3 °F 67% 30.03 in 10.0 mi SSE 10.4 mph - N/A   Clear
10:55 AM 83.5 °F 86.9 °F 68.9 °F 61% 30.03 in 10.0 mi South 8.1 mph - N/A   Clear
11:15 AM 83.8 °F 87.0 °F 68.0 °F 59% 30.03 in 10.0 mi South 11.5 mph 16.1 mph N/A   Scattered Clouds
11:35 AM 84.6 °F 87.6 °F 67.6 °F 57% 30.02 in 10.0 mi SE 15.0 mph - N/A   Scattered Clouds
11:55 AM 84.9 °F 87.6 °F 67.1 °F 55% 30.02 in 10.0 mi SSE 12.7 mph 20.7 mph N/A   Scattered Clouds
12:15 PM 85.5 °F 87.9 °F 66.6 °F 53% 30.02 in 10.0 mi SSE 15.0 mph 20.7 mph N/A   Clear
12:35 PM 85.5 °F 87.6 °F 66.2 °F 52% 30.01 in 10.0 mi SSE 13.8 mph 19.6 mph N/A   Clear
12:55 PM 85.8 °F 88.2 °F 66.4 °F 52% 30.00 in 10.0 mi South 11.5 mph 19.6 mph N/A   Scattered Clouds
1:15 PM 86.0 °F 88.2 °F 66.2 °F 51% 29.99 in 10.0 mi SSE 11.5 mph 18.4 mph N/A   Scattered Clouds
1:35 PM 86.0 °F 87.9 °F 65.7 °F 50% 29.99 in 10.0 mi South 15.0 mph 20.7 mph N/A   Scattered Clouds
1:55 PM 85.3 °F 87.1 °F 65.5 °F 51% 29.98 in 10.0 mi South 13.8 mph 21.9 mph N/A   Mostly Cloudy
2:15 PM 86.0 °F 87.9 °F 65.1 °F 50% 29.97 in 10.0 mi South 12.7 mph 20.7 mph N/A   Scattered Clouds
2:35 PM 86.4 °F 88.1 °F 65.1 °F 49% 29.97 in 10.0 mi SSE 15.0 mph 18.4 mph N/A   Scattered Clouds
2:55 PM 86.4 °F 88.4 °F 65.5 °F 50% 29.96 in 10.0 mi SE 16.1 mph 21.9 mph N/A   Scattered Clouds
3:15 PM 85.8 °F 87.6 °F 65.1 °F 50% 29.95 in 10.0 mi SSE 15.0 mph 20.7 mph N/A   Clear
3:35 PM 85.5 °F 87.4 °F 65.3 °F 51% 29.95 in 10.0 mi SSE 15.0 mph - N/A   Clear
3:55 PM 85.5 °F 87.6 °F 66.0 °F 52% 29.94 in 10.0 mi SE 12.7 mph 20.7 mph N/A   Clear
4:15 PM 84.7 °F 86.6 °F 65.1 °F 52% 29.94 in 10.0 mi SSE 13.8 mph - N/A   Clear
4:35 PM 84.2 °F 86.1 °F 65.3 °F 53% 29.94 in 10.0 mi SE 17.3 mph - N/A   Clear
4:55 PM 83.7 °F 86.0 °F 66.4 °F 56% 29.94 in 10.0 mi SSE 13.8 mph 21.9 mph N/A   Clear
5:15 PM 83.1 °F 85.9 °F 67.3 °F 59% 29.94 in 10.0 mi SE 16.1 mph 24.2 mph N/A   Clear
5:35 PM 82.4 °F 85.0 °F 67.5 °F 60% 29.94 in 10.0 mi SE 16.1 mph - N/A   Clear
5:55 PM 81.5 °F 83.9 °F 67.1 °F 61% 29.94 in 10.0 mi SE 16.1 mph - N/A   Clear
6:15 PM 80.6 °F 83.2 °F 67.6 °F 65% 29.95 in 10.0 mi SE 12.7 mph - N/A   Clear
6:55 PM 78.3 °F - 68.5 °F 72% 29.94 in 10.0 mi SE 8.1 mph - N/A   Clear
7:15 PM 77.0 °F - 69.1 °F 76% 29.95 in 10.0 mi SE 8.1 mph - N/A   Clear
7:35 PM 76.6 °F - 69.8 °F 79% 29.95 in 10.0 mi SSE 8.1 mph - N/A   Clear
7:55 PM 76.3 °F - 69.8 °F 80% 29.96 in 10.0 mi SE 8.1 mph - N/A   Clear
8:15 PM 76.1 °F - 69.8 °F 81% 29.96 in 10.0 mi SE 9.2 mph - N/A   Clear
8:35 PM 76.3 °F - 69.8 °F 80% 29.97 in 10.0 mi SSE 9.2 mph - N/A   Clear
8:55 PM 76.3 °F - 69.8 °F 80% 29.97 in 10.0 mi SSE 9.2 mph - N/A   Clear
9:15 PM 76.1 °F - 69.8 °F 81% 29.97 in 10.0 mi SSE 6.9 mph - N/A   Clear
9:35 PM 75.7 °F - 69.4 °F 81% 29.98 in 10.0 mi SSE 8.1 mph - N/A   Clear
9:55 PM 75.6 °F - 69.8 °F 82% 29.98 in 10.0 mi SSE 6.9 mph - N/A   Clear
10:15 PM 75.9 °F - 70.0 °F 82% 29.98 in 10.0 mi SSE 8.1 mph - N/A   Clear
10:35 PM 76.1 °F - 70.3 °F 82% 29.98 in 10.0 mi SSE 10.4 mph - N/A   Clear
10:55 PM 76.3 °F - 70.3 °F 82% 29.99 in 10.0 mi SSE 9.2 mph - N/A   Clear
11:15 PM 76.1 °F - 70.2 °F 82% 29.99 in 10.0 mi SSE 9.2 mph - N/A   Clear
11:35 PM 76.1 °F - 70.3 °F 82% 29.99 in 10.0 mi SSE 6.9 mph - N/A   Clear
11:55 PM 75.9 °F - 70.3 °F 83% 29.99 in 10.0 mi SSE 8.1 mph - N/A   Clear